Regional Weather Roundup
Issued by NWS

Home | Current Version | Previous Version | Graphics & Text | Print | Product List | Glossary On
Versions: 1 2 3 4 5 6 7 8 9 10 11 12 13 14 15 16 17 18 19 20 21 22 23 24 25 26 27 28 29 30 31 32 33 34 35 36 37 38 39 40 41 42 43 44 45 46 47 48 49 50
000
ASUS45 KABQ 300701
RWRNM
WEATHER ROUNDUP FOR NEW MEXICO
NATIONAL WEATHER SERVICE ALBUQUERQUE NM
1200 AM MST FRI JAN 30 2015

NOTE: "FAIR" MEANS FEW OR NO CLOUDS BELOW 12,000 FEET AGL WITH NO
       SIGNIFICANT WEATHER OR OBSTRUCTIONS TO VISION.

      THIS PRODUCT IS RELEASED AS TWO VERSIONS.  ONE VERSION NEAR
      THE TOP OF THE HOUR CONTAINING PRELIMINARY DATA FROM ALBUQUERQUE
      AND OTHER STATIONS.  A FINAL VERSION WITH ADDITIONAL DATA IS
      ISSUED ABOUT 10 MINUTES AFTER THE HOUR.

NMZ501-503-504-510>518-300800-
NORTHWEST PLATEAU/NORTHCENTRAL MOUNTAINS

CITY           SKY/WX    TMP DP  RH WIND       PRES   REMARKS
FARMINGTON     CLOUDY    43  24  47 E12       30.30F
SANTA FE       CLOUDY    38  14  37 SE14      30.41F WCI  30
TAOS           CLOUDY    34  25  69 CALM      30.42F

$$
NMZ402-403-502-505>509-300800-
WESTCENTRAL MOUNTAINS/SOUTHWEST MOUNTAINS

CITY           SKY/WX    TMP DP  RH WIND       PRES   REMARKS
GALLUP         LGT RAIN  36  32  85 E14       30.27F WCI  27
GRANTS         LGT SNOW  32  31  97 SE17G28   30.36R WCI  20
SILVER CITY    CLOUDY    41  39  93 SE8       30.32F

$$
NMZ407-409-411-412-300800-
SOUTHERN DESERTS

CITY           SKY/WX    TMP DP  RH WIND       PRES   REMARKS
DEMING         CLOUDY    43  39  86 E14       30.31F
HOLLOMAN AFB   CLOUDY    47  35  63 N3        30.32F
ALAMOGORDO     CLOUDY    48  36  61 SE5       30.33F
T OR C         LGT RAIN  44  37  76 CALM      30.34S

$$
NMZ519>523-300800-
CENTRAL VALLEYS/CENTRAL HIGHLANDS

CITY           SKY/WX    TMP DP  RH WIND       PRES   REMARKS
ALBUQUERQUE    CLOUDY    42  20  41 E22       30.40S
DOUBLE EAGLE   CLOUDY    39  19  44 SE9       30.40F WCI  32
MORIARTY ARPT  CLOUDY    36  17  47 SE9       30.45F WCI  29
CLINES CORNERS CLOUDY    32  16  51 E15       30.40F WCI  22
BELEN          DRIZZLE   38  33  82 SE14      30.39F WCI  30
SOCORRO        NOT AVBL

$$
NMZ524>526-539-540-300800-
SOUTHCENTRAL MOUNTAINS

CITY           SKY/WX    TMP DP  RH WIND       PRES   REMARKS
RUIDOSO        NOT AVBL

$$
NMZ527>531-300800-
NORTHEAST HIGHLANDS/NORTHEAST PLAINS

CITY           SKY/WX    TMP DP  RH WIND       PRES   REMARKS
LAS VEGAS      CLOUDY    33  19  56 CALM      30.46F
RATON          CLOUDY    33  28  81 SW7       30.44F WCI  27
CLAYTON        NOT AVBL

$$
NMZ532>537-300800-
EASTCENTRAL PLAINS

CITY           SKY/WX    TMP DP  RH WIND       PRES   REMARKS
TUCUMCARI      MOCLDY    38  31  76 CALM      30.46F
CANNON AFB     CLOUDY    38  30  72 CALM      30.47F
CLOVIS AIRPORT CLOUDY    36  30  80 SE5       30.47F WCI  32

$$
NMZ028-029-538-300800-
SOUTHEAST PLAINS

CITY           SKY/WX    TMP DP  RH WIND       PRES   REMARKS
ROSWELL        CLOUDY    45  30  55 E3        30.46F
ARTESIA        CLOUDY    46  30  53 NE3       30.47F
CARLSBAD       CLOUDY    48  30  49 S7        30.46F
HOBBS          CLOUDY    43  25  49 E7        30.46F


$$



USA.gov is the U.S. government's official web portal to all federal, state and local government web resources and services.